Skip Page Navigation
NASA JPL Caltech
NASA Logo - Jet Propulsion Laboratory + View the NASA Portal
+ Center for Near-Earth Object Studies
JPL Home Earth Solar System Stars & Galaxies Technology
JPL Solar System Dynamics
BODIES ORBITS EPHEMERIDES TOOLS PHYSICAL DATA DISCOVERY FAQ SITE MAP
JPL Small-Body Database Browser
Search: [ help ]  
523044 (2016 PM127)
Classification: Outer Main-belt Asteroid          SPK-ID: 2523044
Ephemeris | Orbit Diagram | Orbital Elements | Mission Design | Physical Parameters | Discovery Circumstances | Close-Approach Data ]

[ show orbit diagram ]
Orbital Elements at Epoch 2459000.5 (2020-May-31.0) TDB
Reference: JPL 4 (heliocentric ecliptic J2000)
 Element Value Uncertainty (1-sigma)   Units 
e .07798349867166748 1.4968e-07  
a 3.366184031116413 1.1533e-07 au
q 3.103677223197258 5.1475e-07 au
i 14.78381837485118 1.4107e-05 deg
node 178.2075102919482 3.903e-05 deg
peri 185.6230386849053 7.7421e-05 deg
M 218.1653855223441 6.4093e-05 deg
tp 2459889.260903460751
(2022-Nov-05.76090346)
0.00040971 TDB
period 2255.82398502782
6.18
0.00011593
3.174e-07
d
yr
n .1595869191875625 8.2014e-09 deg/d
Q 3.628690839035568 1.2432e-07 au
  Orbit Determination Parameters
   # obs. used (total)      52  
   data-arc span      6979 days (19.11 yr)  
   first obs. used      2001-03-21  
   last obs. used      2020-04-29  
   planetary ephem.      DE431  
   SB-pert. ephem.      SB431-N16  
   condition code      0  
   norm. resid. RMS      .70268  
   source      ORB  
   producer      Otto Matic  
   solution date      2020-Nov-11 22:46:47  

Additional Information
 Earth MOID = 2.10126 au 
 Jupiter MOID = 1.82895 au 
 T_jup = 3.096 
[ show covariance matrix ]

Ephemeris | Orbit Diagram | Orbital Elements | Mission Design | Physical Parameters | Discovery Circumstances | Close-Approach Data ]

Physical Parameter Table
Parameter Symbol Value Units Sigma Reference Notes
absolute magnitude H 16.4   n/a MPO448134  

523044 (2016 PM127)          Discovered 2010-Sep-11 by Spacewatch at Kitt Peak
Reference: Last Updated: 2018-05-31

[ show close-approach data ]
Ephemeris | Orbit Diagram | Orbital Elements | Mission Design | Physical Parameters | Discovery Circumstances | Close-Approach Data ]
ABOUT SSD CREDITS/AWARDS PRIVACY/COPYRIGHT GLOSSARY LINKS
FirstGov 2020-Dec-03 02:03 UT
(server date/time)  
NASA Home Page
Site Manager:   Ryan S. Park
Webmaster  Alan B. Chamberlin